Погода в Калининграде

Россия / Калининградская область     54°42′26″N   20°30′26″E
темп.,
°C
ветер,
м/с
пор.,
м/с
влажн.,
%
обл.,
%
осадки,
мм/ч
давл.,
гПа
погр.,
м
8 мая, сб
сб823:00+2сз379796 0.0 1009158
02:00+4сз367968 0.0 1011606
05:000з11879 0.0 101211
08:00+6зюз34725 0.0 1014644
11:00+9зюз576137 0.1 10151234
14:00+9з677248 0.6 10151184
17:00+9зсз68695 0.7 10161243
20:00+5зсз34910 0.8 101877
9 мая, вс
вс923:00+2юз22925 0.0 101917
02:00+1ююз349332 0.0 101950
05:00+1ю3588100 0.0 101979
08:00+8ю5107075 0.0 1019415
11:00+13ю71059100 0.0 10181318
14:00+12ю61265100 0.0 1017705
17:00+15ююз61171100 0.0 1015890
20:00+12ю4984100 0.0 1016186
10 мая, пн
пн1023:00+9ююв4139271 0.0 1016224
02:00+10ююв5128594 0.0 1016279
05:00+8ююв41289100 0.0 1016243
08:00+13ююв51379100 0.0 1017374
11:00+18ююв8116524 0.0 1016619
14:00+20ююв813635 0.0 1015911
17:00+20ююв81466100 0.0 10141128
20:00+17ююв71575100 0.0 1015546
11 мая, вт
вт1123:00+15ююв616800 0.0 1015506
02:00+13юв614863 0.0 1015376
05:00+11юв614910 0.0 1015346
08:00+14юв714810 0.0 1015496
11:00+19ююв812670 0.0 1014811
14:00+22ююв812660 0.0 10131017
17:00+22ююв813690 0.0 10131061
20:00+18юв614765 0.0 1013626
12 мая, ср
ср1223:00+16юв716730 0.0 1014555
02:00+14юв716740 0.0 1014482
05:00+12юв6157184 0.0 1014439
08:00+14юв715744 0.0 1014524
11:00+18юв813620 0.0 1014864
14:00+21юв812615 0.0 10131301
17:00+21юв712695 0.0 10131379
20:00+17юв6147570 0.0 1014561